SCP
0 -0 0 0 0 0 0 0 0 -0 -0 -0 -0 -0 -0 -0 -0 -0 -0 -0 0 0 0 0 0 0 0 0 0 0 0 0 0
0 0 -0 0 0 -0 -0 -0 -0 -0 -0 -0 -0 -0 -0 -0 -0 -0 -0 0 -0 -0 0 0 1 0 0 0 0 0 0 0 0
0 0 0 0 0 -0 -0 -0 0 -0 0 -0 -0 -0 -0 -0 -0 -0 0 0 -0 -0 0 1 1 0 0 0 0 0 0 0 0
0 0 0 0 0 0 -0 -0 0 -0 0 0 -0 -0 -0 -0 -0 -1 -1 -0 -0 -0 0 0 1 0 0 0 0 0 0 0 0
0 0 0 0 0 0 0 0 0 -0 -0 0 0 -0 -0 -0 -1 -1 -1 -1 -1 -0 -0 -0 -0 0 0 -0 0 0 0 0 0
0 0 0 0 0 0 0 -0 0 0 -0 0 0 -0 -0 -1 -1 -1 -0 -1 -1 -0 -0 -0 -0 -0 -0 -0 0 0 0 0 0
0 0 0 -0 0 0 0 0 -0 -0 0 0 0 -0 -0 -1 -1 -1 -1 -0 -0 -0 -0 0 -0 -0 -0 -0 -0 -0 0 0 0
0 0 0 0 0 0 0 0 -0 0 -0 -0 0 0 0 0 -0 -0 0 0 0 0 0 0 0 0 -0 -0 -0 -0 -0 0 0
0 0 0 0 0 0 0 0 0 -0 -0 -0 0 0 0 0 0 -0 -0 0 0 1 0 0 0 0 0 0 0 -0 -0 -0 0
0 0 0 0 0 0 0 -0 0 0 0 0 0 0 -0 -0 0 0 0 -0 0 1 0 0 0 0 0 0 0 -0 -0 0 -0
0 0 0 0 0 0 0 0 -0 0 1 0 0 0 0 0 0 0 1 1 0 1 1 0 0 0 0 0 0 -0 -0 -0 -0
0 0 0 0 0 0 0 0 0 0 0 0 1 1 1 1 1 1 1 1 1 1 1 1 0 0 0 0 0 -0 -0 0 0
0 0 0 -0 -0 -0 0 0 1 1 1 1 0 1 2 2 2 1 1 1 2 2 1 0 1 0 0 0 0 -0 -0 0 0
0 0 0 0 0 0 0 0 0 1 1 2 2 2 1 2 5 4 4 2 1 1 1 1 1 0 0 0 0 0 0 0 0
0 0 0 0 0 1 0 0 0 0 1 1 1 2 4 6 6 4 2 1 0 0 0 0 0 0 0 0 0 0 0 0 0
0 0 0 0 0 0 0 1 1 1 1 1 1 2 4 3 2 1 0 1 0 0 0 0 0 0 0 0 0 0 0 0 0
0 0 0 0 0 0 0 1 0 0 1 1 2 3 2 1 1 0 1 1 0 0 0 0 0 0 0 0 0 0 0 0 0
0 0 0 0 0 0 0 0 0 1 1 1 1 2 1 1 1 1 1 1 0 0 0 0 0 0 0 0 0 0 0 0 0
0 0 0 0 0 0 0 1 1 1 1 1 1 1 1 0 1 1 1 0 0 0 0 0 0 0 0 0 0 0 0 0 0
0 0 0 0 0 0 1 1 1 1 1 1 1 1 0 0 0 0 0 0 0 0 0 0 0 0 0 0 0 0 0 0 0
Wind_Speed_500mb
7 23 33 44 51 49 48 46 45 44 42 44 48 47 47 46 44 44 36 29 24 21 22 18 22 20 17 17 11 7 2 3 4
17 18 22 28 38 46 49 50 48 47 44 46 52 52 48 46 43 44 38 35 33 25 23 27 26 26 23 19 16 10 3 2 5
16 13 14 18 24 34 41 47 48 50 50 52 51 54 52 50 45 43 44 40 37 31 30 30 30 28 28 22 19 14 8 2 3
8 8 11 14 16 21 31 37 42 47 51 46 50 56 52 50 51 46 44 44 42 43 33 36 33 33 35 30 22 17 11 5 1
9 3 7 10 13 16 23 33 40 45 45 46 49 55 59 58 45 51 48 48 43 41 35 34 32 36 36 32 29 21 12 6 4
13 8 7 6 9 14 18 27 39 45 48 52 47 50 57 61 61 55 53 48 46 43 34 31 32 36 38 39 33 30 19 11 10
18 14 11 8 5 11 21 28 35 45 49 51 56 56 57 60 63 61 55 54 51 44 31 31 30 36 37 36 32 32 20 17 18
25 21 19 16 10 1 12 24 33 38 42 46 48 48 51 46 55 61 57 56 53 48 36 30 31 35 34 34 31 37 25 14 17
24 22 23 22 21 17 4 22 27 36 42 49 48 43 38 43 56 58 62 63 53 50 43 31 39 35 34 28 34 38 30 23 20
11 11 12 14 17 20 16 4 21 29 38 46 49 55 48 64 63 60 54 58 58 56 49 38 42 39 34 28 39 40 28 24 26
11 12 13 13 14 14 13 5 7 21 34 45 56 67 62 63 69 60 59 60 61 58 54 40 44 40 33 36 44 36 29 29 28
13 15 16 15 13 12 11 8 7 16 25 37 50 67 66 66 65 50 54 57 52 47 47 41 38 40 35 40 44 39 35 34 31
15 17 19 20 17 11 7 10 7 9 20 31 41 51 58 59 65 47 46 56 49 48 30 28 30 33 34 44 46 41 37 40 29
16 20 24 26 21 13 4 4 7 11 16 24 26 32 39 51 63 60 61 72 77 65 35 22 26 32 36 43 46 43 39 41 35
15 21 26 26 25 20 13 9 9 14 19 20 24 28 40 48 51 61 71 82 74 62 51 49 18 32 44 44 49 44 43 45 39
17 20 22 24 24 26 17 13 15 18 20 23 27 28 42 36 51 64 70 75 75 69 55 69 79 49 52 42 53 52 47 48 50
24 24 23 23 27 30 29 23 23 22 24 27 25 38 41 45 47 53 59 65 72 70 50 55 45 49 70 53 46 47 55 58 54
25 28 29 27 28 31 32 30 34 27 24 24 22 34 38 47 54 57 59 69 86 69 63 57 48 83 71 70 58 57 59 62 60
25 30 34 37 41 38 31 28 34 33 22 15 20 26 38 45 57 62 74 84 76 59 73 44 36 54 64 60 67 62 53 59 54
33 37 39 43 46 41 28 28 33 24 17 13 9 16 23 31 53 62 74 76 70 72 73 57 55 54 57 71 64 51 50 53 47
Wind_Direction_500mb
162 176 188 199 203 205 206 208 207 208 218 217 215 218 224 229 228 229 226 227 232 228 229 208 226 215 207 205 199 183 171 73 59
118 153 176 191 202 207 207 207 210 208 210 212 213 213 218 226 223 220 222 223 228 225 222 213 221 215 208 205 192 192 173 196 8
104 133 166 186 202 212 212 212 209 211 213 216 219 219 222 226 225 224 228 230 230 227 234 226 228 226 215 205 202 193 180 261 25
116 141 174 202 206 213 210 212 209 209 213 212 210 216 221 224 226 222 220 223 229 235 237 236 233 233 221 213 211 204 202 195 144
79 133 204 198 196 193 196 201 199 205 206 208 211 214 220 223 223 225 220 218 226 233 237 232 232 230 221 217 216 212 215 197 134
78 89 127 145 175 187 188 189 194 197 207 215 214 213 221 224 226 228 222 220 221 228 234 234 233 219 222 221 219 216 215 180 148
64 69 85 98 151 188 196 194 203 206 206 212 220 218 221 226 229 230 228 223 220 220 231 232 231 222 221 214 223 212 200 183 162
60 58 59 59 63 102 209 205 211 201 208 206 214 220 230 229 235 231 230 226 216 219 222 232 224 221 213 209 213 194 179 192 168
73 62 53 45 38 24 334 214 214 204 200 205 207 208 224 241 237 235 230 223 219 217 214 221 214 211 213 222 201 191 204 220 187
53 21 9 11 18 21 17 234 223 216 212 209 207 198 197 231 234 233 221 221 222 215 209 213 212 205 211 202 188 195 212 206 188
50 29 9 5 3 360 351 351 204 216 223 221 217 201 220 229 230 227 225 225 216 206 205 212 203 200 205 186 196 200 210 197 188
33 25 11 355 348 340 324 324 219 190 209 218 213 221 229 227 222 217 222 210 202 201 199 205 195 199 199 190 194 197 201 192 185
6 6 3 355 344 318 285 293 292 244 213 216 220 218 224 225 229 212 208 203 187 193 190 195 196 202 198 197 196 199 197 192 179
334 344 350 358 357 358 332 272 275 256 245 240 225 225 220 215 215 210 202 193 195 185 167 196 204 210 199 202 204 201 198 197 186
327 331 335 334 342 343 333 314 303 272 263 260 248 231 222 212 206 210 209 210 205 186 179 217 228 214 213 205 206 206 203 199 189
312 315 316 319 317 323 329 321 308 292 280 269 254 237 237 236 221 218 218 212 193 191 193 202 221 266 215 205 206 208 204 199 201
299 306 312 308 308 309 306 321 319 312 300 286 255 249 249 241 236 230 221 210 198 193 210 204 178 195 215 207 201 201 200 199 199
298 303 310 310 306 300 299 310 317 317 307 288 257 250 245 240 233 227 217 204 197 209 206 188 191 198 197 200 202 201 207 202 198
300 305 309 309 312 298 295 301 304 314 320 301 259 245 245 235 225 217 214 208 207 206 193 206 210 208 211 208 208 213 211 202 199
300 311 306 305 302 287 283 293 295 304 309 314 271 263 257 245 226 217 218 212 199 186 197 197 212 232 216 204 199 205 208 198 196
Wind_Speed_850mb
7 23 33 44 51 49 48 46 45 44 42 44 48 47 47 46 44 44 36 29 24 21 22 18 22 20 17 17 11 7 2 3 4
17 18 22 28 38 46 49 50 48 47 44 46 52 52 48 46 43 44 38 35 33 25 23 27 26 26 23 19 16 10 3 2 5
16 13 14 18 24 34 41 47 48 50 50 52 51 54 52 50 45 43 44 40 37 31 30 30 30 28 28 22 19 14 8 2 3
8 8 11 14 16 21 31 37 42 47 51 46 50 56 52 50 51 46 44 44 42 43 33 36 33 33 35 30 22 17 11 5 1
9 3 7 10 13 16 23 33 40 45 45 46 49 55 59 58 45 51 48 48 43 41 35 34 32 36 36 32 29 21 12 6 4
13 8 7 6 9 14 18 27 39 45 48 52 47 50 57 61 61 55 53 48 46 43 34 31 32 36 38 39 33 30 19 11 10
18 14 11 8 5 11 21 28 35 45 49 51 56 56 57 60 63 61 55 54 51 44 31 31 30 36 37 36 32 32 20 17 18
25 21 19 16 10 1 12 24 33 38 42 46 48 48 51 46 55 61 57 56 53 48 36 30 31 35 34 34 31 37 25 14 17
24 22 23 22 21 17 4 22 27 36 42 49 48 43 38 43 56 58 62 63 53 50 43 31 39 35 34 28 34 38 30 23 20
11 11 12 14 17 20 16 4 21 29 38 46 49 55 48 64 63 60 54 58 58 56 49 38 42 39 34 28 39 40 28 24 26
11 12 13 13 14 14 13 5 7 21 34 45 56 67 62 63 69 60 59 60 61 58 54 40 44 40 33 36 44 36 29 29 28
13 15 16 15 13 12 11 8 7 16 25 37 50 67 66 66 65 50 54 57 52 47 47 41 38 40 35 40 44 39 35 34 31
15 17 19 20 17 11 7 10 7 9 20 31 41 51 58 59 65 47 46 56 49 48 30 28 30 33 34 44 46 41 37 40 29
16 20 24 26 21 13 4 4 7 11 16 24 26 32 39 51 63 60 61 72 77 65 35 22 26 32 36 43 46 43 39 41 35
15 21 26 26 25 20 13 9 9 14 19 20 24 28 40 48 51 61 71 82 74 62 51 49 18 32 44 44 49 44 43 45 39
17 20 22 24 24 26 17 13 15 18 20 23 27 28 42 36 51 64 70 75 75 69 55 69 79 49 52 42 53 52 47 48 50
24 24 23 23 27 30 29 23 23 22 24 27 25 38 41 45 47 53 59 65 72 70 50 55 45 49 70 53 46 47 55 58 54
25 28 29 27 28 31 32 30 34 27 24 24 22 34 38 47 54 57 59 69 86 69 63 57 48 83 71 70 58 57 59 62 60
25 30 34 37 41 38 31 28 34 33 22 15 20 26 38 45 57 62 74 84 76 59 73 44 36 54 64 60 67 62 53 59 54
33 37 39 43 46 41 28 28 33 24 17 13 9 16 23 31 53 62 74 76 70 72 73 57 55 54 57 71 64 51 50 53 47
Wind_Direction_850mb
162 176 188 199 203 205 206 208 207 208 218 217 215 218 224 229 228 229 226 227 232 228 229 208 226 215 207 205 199 183 171 73 59
118 153 176 191 202 207 207 207 210 208 210 212 213 213 218 226 223 220 222 223 228 225 222 213 221 215 208 205 192 192 173 196 8
104 133 166 186 202 212 212 212 209 211 213 216 219 219 222 226 225 224 228 230 230 227 234 226 228 226 215 205 202 193 180 261 25
116 141 174 202 206 213 210 212 209 209 213 212 210 216 221 224 226 222 220 223 229 235 237 236 233 233 221 213 211 204 202 195 144
79 133 204 198 196 193 196 201 199 205 206 208 211 214 220 223 223 225 220 218 226 233 237 232 232 230 221 217 216 212 215 197 134
78 89 127 145 175 187 188 189 194 197 207 215 214 213 221 224 226 228 222 220 221 228 234 234 233 219 222 221 219 216 215 180 148
64 69 85 98 151 188 196 194 203 206 206 212 220 218 221 226 229 230 228 223 220 220 231 232 231 222 221 214 223 212 200 183 162
60 58 59 59 63 102 209 205 211 201 208 206 214 220 230 229 235 231 230 226 216 219 222 232 224 221 213 209 213 194 179 192 168
73 62 53 45 38 24 334 214 214 204 200 205 207 208 224 241 237 235 230 223 219 217 214 221 214 211 213 222 201 191 204 220 187
53 21 9 11 18 21 17 234 223 216 212 209 207 198 197 231 234 233 221 221 222 215 209 213 212 205 211 202 188 195 212 206 188
50 29 9 5 3 360 351 351 204 216 223 221 217 201 220 229 230 227 225 225 216 206 205 212 203 200 205 186 196 200 210 197 188
33 25 11 355 348 340 324 324 219 190 209 218 213 221 229 227 222 217 222 210 202 201 199 205 195 199 199 190 194 197 201 192 185
6 6 3 355 344 318 285 293 292 244 213 216 220 218 224 225 229 212 208 203 187 193 190 195 196 202 198 197 196 199 197 192 179
334 344 350 358 357 358 332 272 275 256 245 240 225 225 220 215 215 210 202 193 195 185 167 196 204 210 199 202 204 201 198 197 186
327 331 335 334 342 343 333 314 303 272 263 260 248 231 222 212 206 210 209 210 205 186 179 217 228 214 213 205 206 206 203 199 189
312 315 316 319 317 323 329 321 308 292 280 269 254 237 237 236 221 218 218 212 193 191 193 202 221 266 215 205 206 208 204 199 201
299 306 312 308 308 309 306 321 319 312 300 286 255 249 249 241 236 230 221 210 198 193 210 204 178 195 215 207 201 201 200 199 199
298 303 310 310 306 300 299 310 317 317 307 288 257 250 245 240 233 227 217 204 197 209 206 188 191 198 197 200 202 201 207 202 198
300 305 309 309 312 298 295 301 304 314 320 301 259 245 245 235 225 217 214 208 207 206 193 206 210 208 211 208 208 213 211 202 199
300 311 306 305 302 287 283 293 295 304 309 314 271 263 257 245 226 217 218 212 199 186 197 197 212 232 216 204 199 205 208 198 196